Overview Statistics Trail Chart Weather Telemetry Raw packets
 

This is the latest recevied weather packets stored in our database for station/object N7ZAP. If no packets are shown the sender has not sent any weather packets the latest 10 day(s).

<< 24 25 26 27 28 29 30 >>
Time Temp. Humidity Pressure Rain* Wind** Luminosity Snow
1788528860 21.11° C 60% 1021 hPa 0 mm - - -
1788528556 21.11° C 59% 1020.9 hPa 0 mm - - -
1788528251 21.67° C 58% 1020.7 hPa 0 mm - - -
1788527950 22.22° C 57% 1020.5 hPa 0 mm - - -
1788527646 22.78° C 54% 1020.5 hPa 0 mm - - -
1788527341 23.33° C 51% 1020.6 hPa 0 mm - - -
1788527040 23.33° C 47% 1020.2 hPa 0 mm - - -
1788526735 23.33° C 48% 1020.4 hPa 0 mm - - -
1788526432 22.22° C 50% 1020.2 hPa 0 mm - - -
1788526130 21.67° C 53% 1020.2 hPa 0 mm - - -
1788525828 21.67° C 53% 1020.1 hPa 0 mm - - -
1788525522 22.22° C 53% 1019.9 hPa 0 mm - - -
1788525217 22.22° C 52% 1020.2 hPa 0 mm - - -
1788524913 21.67° C 53% 1019.8 hPa 0 mm - - -
1788524612 21.67° C 54% 1019.9 hPa 0 mm - - -
1788524307 21.67° C 55% 1020.1 hPa 0 mm - - -
1788524004 21.67° C 56% 1020.2 hPa 0 mm - - -
1788523700 21.11° C 57% 1020.2 hPa 0 mm - - -
1788523395 21.67° C 57% 1019.9 hPa 0 mm - - -
1788523090 21.67° C 57% 1019.9 hPa 0 mm - - -
1788522785 21.67° C 56% 1019.8 hPa 0 mm - - -
1788522480 21.67° C 57% 1019.7 hPa 0 mm - - -
1788522180 21.67° C 55% 1019.8 hPa 0 mm - - -
1788521875 21.67° C 55% 1019.9 hPa 0 mm - - -
1788521574 21.67° C 55% 1019.8 hPa 0 mm - - -

* Rain latest hour (hover to see other rain measurements)
** Current wind speed in m/s (hover to see current wind gust speed)